Regional Weather Roundup
Issued by NWS Newport/Morehead, NC

Current Version | Previous Version | Graphics & Text | Print | Product List | Glossary Off
Versions: 1 2 3 4 5 6 7 8 9 10 11 12 13 14 15 16 17 18 19 20 21 22 23 24 25 26 27 28 29 30 31 32 33 34 35 36 37 38 39 40 41 42 43 44 45 46 47 48 49 50

930
ASUS42 KMHX 131625
RWRMHX
WEATHER ROUNDUP FOR EASTERN NORTH CAROLINA
NATIONAL WEATHER SERVICE NEWPORT/MOREHEAD CITY NC
1100 AM EST WED DEC 13 2017

NOTE: "FAIR" INDICATES FEW OR NO CLOUDS BELOW 12,000 FEET
WITH NO SIGNIFICANT WEATHER AND/OR OBSTRUCTIONS TO VISIBILITY

NCZ015>017-031-032-045>047-102-103-131700-
NORTH COAST

CITY           SKY/WX    TMP DP  RH WIND       PRES   REMARKS
EDENTON        SUNNY     36  11  35 NW13G22   29.96S
ELIZABETH CITY SUNNY     34  10  37 W22       29.94F
KITTY HAWK     SUNNY     32   8  36 W16G23    29.91F
MANTEO         SUNNY     33  11  41 NW14G24   29.94F

$$

NCZ045>047-081-094-103-104-131700-
CENTRAL COAST

CITY           SKY/WX    TMP DP  RH WIND       PRES   REMARKS
FRISCO         SUNNY     35  15  44 NW15G28   29.95F

$$

NCZ095-097-098-100-101-131700-
SOUTHERN COAST

CITY           SKY/WX    TMP DP  RH WIND       PRES   REMARKS
BEAUFORT       SUNNY     39  11  31 NW24G30   29.98F
CEDAR ISLAND   NOT AVBL
JACKSONVILLE   SUNNY     40   9  28 W18G26    29.99F
PINEY ISLAND     N/A    N/A N/A N/A NW14G24   29.97F
WILMINGTON     SUNNY     42  11  28 W15G23    30.02F


$$

NCZ011>013-027>030-043-044-078>080-089-090>093-098-131700-
COASTAL PLAIN

CITY           SKY/WX    TMP DP  RH WIND       PRES   REMARKS
AHOSKIE        SUNNY     34   9  35 SW5       29.95F
CLINTON        SUNNY     38  10  31 W10       30.02F
ELIZABETHTOWN  NOT AVBL
GOLDSBORO      SUNNY     38   7  26 W16       29.98F
GREENVILLE     SUNNY     36   7  30 W12G21    30.00F
HAVELOCK       SUNNY     38   8  29 NW18G28   29.99F
KENANSVILLE    SUNNY     37   5  25 NW13G21   30.00F
KINSTON        SUNNY     37   5  25 W10       30.00F
NEW BERN       SUNNY     37  11  34 NW10G29   29.99F
RICHLANDS      SUNNY     39   8  27 NW12G18   30.00F
ROCKY MOUNT    SUNNY     35   8  32 W10G22    29.99F
WASHINGTON     SUNNY     35   8  32 NW15G21   29.98F
WHITEVILLE     SUNNY     40  10  29 W6        30.03F

$$

AMZ130-135-150-152-154-156-158-170-250-252-270-ANZ085-086-088-633-658-670-131700-
MARINE OBSERVATIONS

STATION/POSITION TIME  TEMP    WIND        PRES    WAVE   SWELL
                       AIR SEA DIR/SP/G            HT/PER HT/PER
                 (UTC) (F)     (DEG/KT/KT) (MB)    (FT/S) (FT/S)
CHESAPEAKE LIGHT NOT AVBL
64 E VA BEACH    1550   34 58  290/ 25/ 33 1010.9   10/ 7   2/11
DUCK             1600   32 54  290/ 18/ 23 1012.8
2 E DUCK         1600      56                N/A     4/ 6
OREGON INLET     1600   32 44  280/ 14/ 22 1013.4
13E OREGON INLT  1548      58                N/A     7/ 8   3/ 8
HATTERAS CG      1600   34 49  310/ 23/ 28 1013.7
DIAMOND BUOY     1610   37 75  310/ 23/ 31 1014.0
CAPE LOOKOUT     1600          310/ 17/ 21 1015.1
BEAUFORT LAB     1600   37 49  310/ 11/ 19 1015.0
30 SE NEW RVR IN 1608   42 63  330/ 17/ 23 1015.7
30 SE NEW RVR IN 1600      63                N/A     6/ 5
27 SE WRIGHTSVLE 1608   42 65  300/ 19/ 29 1015.8
5 SE WRIGHTSVLE  1608   40 57  320/ 14/ 19 1016.1
225 S CAPE HAT   1550   57 75  310/ 19/ 25 1014.2   13/10   8/10
41 SE CHARLESTON 1610   44 73  340/ 10/ 16 1018.1

$$




USA.gov is the U.S. government's official web portal to all federal, state and local government web resources and services.